NIMIQ 5

Last updated on Tue Oct 08 2024 00:02:38 GMT+0000 (Coordinated Universal Time)

1 35873U 09050A 24281.31412008 -.00000246 00000+0 00000+0 0 9997 2 35873 0.0498 86.6906 0002885 110.8230 219.3544 1.00271698 55149
UTC large
Height (km)
Speed (km/s)
/
Latitude / Longitude
Inclination (degrees)
Orbital Period (minutes)
Azimuth
Elevation
Range (km)
Doppler Factor

Next 0 passes for location: London (51.5072 / 0.1276)

Sorry there are no passes over London.